Location: Recife
(8.0585°S, 34.8848°W)
Time: 10:50:41
(UTC-03:00)

Transit 2A Rocket - Pass Details

Date: 19 April 2026
Orbit: 587 x 895 km, 66.7° (Epoch: 14 May)

Event Time Altitude Azimuth Distance (km) Brightness Sun altitude
Rises 22:00:22 0° 187° (S) 3,426 - -70.4°
Reaches altitude 10° 22:02:58 10° 179° (S) 2,518 - -71.1°
Maximum altitude 22:08:26 39° 111° (ESE) 1,314 - -72.4°
Drops below altitude 10° 22:13:57 10° 44° (NE) 2,555 - -73.7°
Sets 22:16:36 0° 36° (NE) 3,482 - -74.4°
